Weather History for Sparta, IL

Change the Weather History Date:

Tuesday, December 4, 2012

  Actual Average (KBLV) Record (KBLV)
Temperature  
Mean Temperature 52 °F -  
Max Temperature 64 °F 48 °F 74 °F (1970)
Min Temperature 41 °F 29 °F 11 °F (1991)
Degree Days  
Heating Degree Days 12    
Growing Degree Days 2 (Base 50)    
Moisture  
Dew Point 51 °F    
Average Humidity 94    
Maximum Humidity 100    
Minimum Humidity 72    
Precipitation  
Precipitation 0.02 in - - ()
Sea Level Pressure  
Sea Level Pressure 30.15 in    
Wind  
Wind Speed 7 mph (NW)    
Max Wind Speed 10 mph    
Max Gust Speed 20 mph    
Visibility 10 miles    
Events Rain    
Averages and records for this station are not official NWS values.
T = Trace of Precipitation, MM = Missing Value Source: NWS Daily Summary

Daily Weather History Graph

Daily Weather History Graph

Search for Another Location

Airport:

Trip Planner

Search our weather history database for the weather conditions in past years. The results will help you decide how hot, cold, wet, or windy it might be!

Date:

Astronomy

Dec. 04, 2012 Rise Set
Actual Time 6:59 AM CST 4:38 PM CST
Civil Twilight 6:30 AM CST 5:07 PM CST
Nautical Twilight 5:57 AM CST 5:40 PM CST
Astronomical Twilight 5:25 AM CST 6:12 PM CST
Moon 10:22 PM CST (12/4) 10:56 AM CST (12/4)
Length of Visible Light 10h 37m
Length of Day
9h 39m
Waning Gibbous, 69% of the Moon is Illuminated
Dec 4
Waning Gibbous
Dec 6
Last Quarter
Dec 13
New
Dec 19
First Quarter
Dec 28
Full

Hourly Weather History & Observations

Time (CST) Temp. Windchill Dew Point Humidity Pressure Visibility Wind Dir Wind Speed Gust Speed Precip Events Conditions
12:15 AM 64.4 °F - 62.6 °F 94% 29.97 in 10.0 mi South 10.4 mph 19.6 mph N/A   Clear
12:35 AM 62.6 °F - 62.6 °F 100% 29.97 in 10.0 mi South 9.2 mph - N/A   Clear
12:55 AM 62.6 °F - 60.8 °F 94% 29.97 in 10.0 mi South 6.9 mph - N/A   Clear
1:15 AM 62.6 °F - 62.6 °F 100% 29.98 in 10.0 mi SSW 9.2 mph - N/A   Clear
1:35 AM 62.6 °F - 62.6 °F 100% 29.98 in 10.0 mi South 8.1 mph - N/A   Clear
1:55 AM 62.6 °F - 62.6 °F 100% 29.98 in 10.0 mi SSW 8.1 mph - N/A   Clear
2:15 AM 62.6 °F - 62.6 °F 100% 29.98 in 10.0 mi South 10.4 mph - N/A   Clear
2:35 AM 62.6 °F - 62.6 °F 100% 29.98 in 10.0 mi South 9.2 mph - N/A   Clear
2:55 AM 62.6 °F - 62.6 °F 100% 29.98 in 10.0 mi South 9.2 mph - N/A   Clear
3:15 AM 62.6 °F - 62.6 °F 100% 29.98 in 10.0 mi South 10.4 mph - N/A   Clear
3:35 AM 60.8 °F - 60.8 °F 100% 29.98 in 10.0 mi South 8.1 mph - N/A   Clear
3:55 AM 60.8 °F - 60.8 °F 100% 29.99 in 10.0 mi SSW 3.5 mph - N/A   Mostly Cloudy
4:15 AM 60.8 °F - 60.8 °F 100% 30.00 in 10.0 mi SSW 5.8 mph - N/A   Overcast
4:35 AM 60.8 °F - 60.8 °F 100% 30.01 in 10.0 mi Calm Calm - N/A   Drizzle
4:55 AM 60.8 °F - 60.8 °F 100% 30.01 in 10.0 mi Calm Calm - N/A   Drizzle
5:15 AM 60.8 °F - 60.8 °F 100% 30.02 in 10.0 mi Calm Calm - N/A Rain Light Rain
5:35 AM 60.8 °F - 60.8 °F 100% 30.03 in 10.0 mi Calm Calm - N/A   Overcast
5:55 AM 60.8 °F - 60.8 °F 100% 30.04 in 10.0 mi WNW 5.8 mph - N/A Rain Rain
6:15 AM 57.2 °F - 57.2 °F 100% 30.05 in 5.0 mi NW 8.1 mph - 0.01 in Rain Light Rain
6:35 AM 55.4 °F - 55.4 °F 100% 30.06 in 4.0 mi NW 8.1 mph - 0.01 in Rain Rain
6:55 AM 55.4 °F - 55.4 °F 100% 30.08 in 5.0 mi NW 10.4 mph - 0.01 in   Overcast
7:15 AM 53.6 °F - 53.6 °F 100% 30.08 in 7.0 mi NNW 9.2 mph - N/A   Overcast
7:35 AM 53.6 °F - 53.6 °F 100% 30.09 in 7.0 mi NNW 8.1 mph - N/A   Overcast
7:55 AM 53.6 °F - 53.6 °F 100% 30.10 in 10.0 mi NNW 6.9 mph - N/A   Overcast
8:15 AM 51.8 °F - 51.8 °F 100% 30.11 in 10.0 mi NNW 8.1 mph - N/A Rain Light Rain
8:35 AM 51.8 °F - 51.8 °F 100% 30.13 in 10.0 mi NW 8.1 mph - N/A   Overcast
8:55 AM 51.8 °F - 51.8 °F 100% 30.13 in 10.0 mi NW 8.1 mph - 0.01 in Rain Light Rain
9:15 AM 51.8 °F - 51.8 °F 100% 30.14 in 10.0 mi NNW 9.2 mph - N/A   Light Drizzle
9:35 AM 51.8 °F - 51.8 °F 100% 30.16 in 10.0 mi NW 10.4 mph - N/A   Overcast
9:55 AM 51.8 °F - 51.8 °F 100% 30.16 in 10.0 mi NNW 8.1 mph - N/A   Drizzle
10:15 AM 51.8 °F - 51.8 °F 100% 30.15 in 10.0 mi NNW 9.2 mph - N/A   Light Drizzle
10:35 AM 51.8 °F - 51.8 °F 100% 30.16 in 10.0 mi NNW 10.4 mph - N/A Rain Light Rain
10:55 AM 51.8 °F - 51.8 °F 100% 30.15 in 10.0 mi NNW 9.2 mph - N/A   Scattered Clouds
11:15 AM 51.8 °F - 51.8 °F 100% 30.14 in 10.0 mi NNW 9.2 mph - N/A   Scattered Clouds
11:35 AM 51.8 °F - 51.8 °F 100% 30.13 in 10.0 mi NNW 8.1 mph - N/A   Scattered Clouds
11:55 AM 51.8 °F - 51.8 °F 100% 30.13 in 10.0 mi North 9.2 mph - N/A   Scattered Clouds
12:15 PM 51.8 °F - 51.8 °F 100% 30.13 in 10.0 mi NNW 8.1 mph - N/A   Overcast
12:35 PM 53.6 °F - 51.8 °F 94% 30.13 in 10.0 mi NNW 6.9 mph - N/A   Overcast
12:55 PM 53.6 °F - 51.8 °F 94% 30.14 in 10.0 mi NNW 10.4 mph - N/A   Overcast
1:15 PM 53.6 °F - 51.8 °F 94% 30.14 in 10.0 mi NNW 5.8 mph - N/A   Mostly Cloudy
1:35 PM 53.6 °F - 48.2 °F 82% 30.15 in 10.0 mi NNW 9.2 mph - N/A   Mostly Cloudy
1:55 PM 53.6 °F - 46.4 °F 77% 30.16 in 10.0 mi NNW 8.1 mph - N/A   Overcast
2:15 PM 53.6 °F - 46.4 °F 77% 30.16 in 10.0 mi North 8.1 mph - N/A   Overcast
2:35 PM 53.6 °F - 46.4 °F 77% 30.17 in 10.0 mi NNW 6.9 mph - N/A   Mostly Cloudy
2:55 PM 53.6 °F - 46.4 °F 77% 30.18 in 10.0 mi North 4.6 mph - N/A   Scattered Clouds
3:15 PM 53.6 °F - 46.4 °F 77% 30.19 in 10.0 mi NNW 5.8 mph - N/A   Clear
3:35 PM 53.6 °F - 44.6 °F 72% 30.19 in 10.0 mi NNW 4.6 mph - N/A   Clear
3:55 PM 53.6 °F - 44.6 °F 72% 30.22 in 10.0 mi NNW 4.6 mph - N/A   Clear
4:15 PM 53.6 °F - 44.6 °F 72% 30.23 in 10.0 mi NNW 3.5 mph - N/A   Clear
4:35 PM 51.8 °F - 44.6 °F 76% 30.23 in 10.0 mi NNW 3.5 mph - N/A   Clear
4:55 PM 51.8 °F - 44.6 °F 76% 30.23 in 10.0 mi Calm Calm - N/A   Clear
5:15 PM 51.8 °F - 44.6 °F 76% 30.23 in 10.0 mi NNW 4.6 mph - N/A   Clear
5:35 PM 50.0 °F - 44.6 °F 82% 30.24 in 10.0 mi NNW 3.5 mph - N/A   Clear
5:55 PM 50.0 °F - 44.6 °F 82% 30.25 in 10.0 mi Calm Calm - N/A   Clear
6:15 PM 48.2 °F - 44.6 °F 87% 30.25 in 10.0 mi NNW 3.5 mph - N/A   Clear
6:35 PM 48.2 °F - 42.8 °F 82% 30.25 in 10.0 mi North 4.6 mph - N/A   Clear
6:55 PM 48.2 °F - 44.6 °F 87% 30.26 in 10.0 mi Calm Calm - N/A   Clear
7:15 PM 48.2 °F - 42.8 °F 82% 30.27 in 10.0 mi Calm Calm - N/A   Clear
7:35 PM 46.4 °F - 44.6 °F 93% 30.28 in 10.0 mi Calm Calm - N/A   Clear
7:55 PM 44.6 °F 43.1 °F 44.6 °F 100% 30.29 in 10.0 mi West 3.5 mph - N/A   Clear
8:15 PM 46.4 °F 45.2 °F 44.6 °F 93% 30.28 in 10.0 mi NW 3.5 mph - N/A   Clear
8:35 PM 42.8 °F - 42.8 °F 100% 30.28 in 10.0 mi Calm Calm - N/A   Clear
8:55 PM 44.6 °F 43.1 °F 44.6 °F 100% 30.28 in 10.0 mi West 3.5 mph - N/A   Clear
9:15 PM 44.6 °F 43.1 °F 44.6 °F 100% 30.29 in 10.0 mi WNW 3.5 mph - N/A   Clear
9:35 PM 44.6 °F 43.1 °F 44.6 °F 100% 30.29 in 10.0 mi WNW 3.5 mph - N/A   Clear
9:55 PM 44.6 °F 42.2 °F 44.6 °F 100% 30.29 in 10.0 mi WNW 4.6 mph - N/A   Clear
10:15 PM 44.6 °F 43.1 °F 44.6 °F 100% 30.29 in 10.0 mi West 3.5 mph - N/A   Clear
10:35 PM 42.8 °F 41.1 °F 42.8 °F 100% 30.30 in 10.0 mi West 3.5 mph - N/A   Clear
10:55 PM 42.8 °F 41.1 °F 42.8 °F 100% 30.30 in 10.0 mi West 3.5 mph - N/A   Clear
11:15 PM 41.0 °F 39.0 °F 41.0 °F 100% 30.30 in 10.0 mi West 3.5 mph - N/A   Clear
11:35 PM 42.8 °F - 42.8 °F 100% 30.30 in 10.0 mi Calm Calm - N/A   Clear
11:55 PM 42.8 °F - 42.8 °F 100% 30.31 in 10.0 mi Calm Calm - N/A   Clear